Regional Weather Roundup
Issued by NWS

Home | Current Version | Previous Version | Text Only | Print | Product List | Glossary Off
Versions: 1 2 3 4 5 6 7 8 9 10 11 12 13 14 15 16 17 18 19 20 21 22 23 24 25 26 27 28 29 30 31 32 33 34 35 36 37 38 39 40 41 42 43 44 45 46 47 48 49 50

000
ASUS43 KMPX 190101
RWRMN
WEATHER ROUNDUP FOR MINNESOTA
NATIONAL WEATHER SERVICE TWIN CITIES/CHANHASSEN MN
700 PM CST SUN FEB 18 2018


NOTE: "FAIR" INDICATES FEW OR NO CLOUDS BELOW 12,000 FEET WITH NO
SIGNIFICANT WEATHER AND/OR OBSTRUCTIONS TO VISIBILITY. N/A MEANS
CURRENT SKY AND/OR WEATHER CONDITIONS ARE NOT AVAILABLE.

MNZ060>063-068>070-190200-
   Twin Cities Metro

CITY           SKY/WX    TMP DP  RH WIND       PRES   REMARKS
TWIN CITIES    CLOUDY    38  31  76 SE6       29.65R
ST PAUL        FAIR      37  31  78 S7        29.67R
CRYSTAL        FAIR      39  29  67 S6        29.63R
BLAINE         MOCLDY    39  30  70 S7        29.64R
LAKEVILLE      FAIR      36  30  80 S3        29.64R
EDEN PRAIRIE   FAIR      40  29  64 S3        29.63R
SOUTH ST PAUL  FAIR      39  30  71 S6        29.65R
LAKE ELMO      FAIR      37  32  81 S9        29.67R
$$
MNZ001>005-007-008-013>017-022>024-027-028-190200-
   Northwest Minnesota

CITY           SKY/WX    TMP DP  RH WIND       PRES   REMARKS
BEMIDJI        MOCLDY    11   7  84 N9        29.85R WCI  -2
HALLOCK        FAIR      10   1  67 N15       30.02R WCI  -6
WARROAD        FAIR       7   1  78 N8        29.99R WCI  -6
THIEF RVR FALL FAIR       9   3  77 N20       29.95R WCI -10
CROOKSTON      FAIR      10   5  79 N13       29.98R WCI  -5
FOSSTON        FAIR       9   1  72 N16       29.89R WCI  -9
DETROIT LAKES  CLOUDY    18  12  79 N6        29.83R WCI   9
MOORHEAD       FAIR      10   7  85 N22       29.91R WCI  -9
PARK RAPIDS    CLOUDY    18  12  77 N14       29.79R WCI   4
MAHNOMEN       FAIR      10   6  82 N17G24    29.87R WCI  -7
$$
MNZ006-009>011-018-025>026-190200-
   North Central Minnesota

CITY           SKY/WX    TMP DP  RH WIND       PRES   REMARKS
BAUDETTE       FAIR       7   2  80 N9        29.93R WCI  -7
FLAG ISLAND    FAIR       7   0  72 N6        29.99R WCI  -3
INTL FALLS     CLOUDY    10   5  80 N10       29.91R WCI  -4
WASKISH        MOCLDY    10   7  85 N10       29.90R WCI  -3
BIG FORK       FLURRIES  10   7  85 N9        29.85R WCI  -2
LONGVILLE      CLOUDY    18  14  86 N7        29.79R WCI   8
GRAND RAPIDS   FLURRIES  16  12  84 N12       29.81R WCI   3
CRANE LAKE     FLURRIES   9   5  85 N3        29.91R
ORR            FLURRIES   9   3  78 N3        29.83R
COOK           FLURRIES  10   7  85 NE5       29.83R WCI   2
WALKER         CLOUDY    15  10  81 N14       29.82R WCI   0
$$
MNZ012-019>021-037-190200-
   Northeast Minnesota

CITY           SKY/WX    TMP DP  RH WIND       PRES   REMARKS
DULUTH         LGT SNOW  23  19  85 NE7       29.71R FOG     WCI  15
ELY            FLURRIES  10   7  85 NE9       29.81R WCI  -2
HIBBING        CLOUDY    15  11  83 N15G21    29.78R WCI   0
EVELETH        CLOUDY   N/A N/A N/A NE13      29.78R
DULUTH HARBOR  LGT SNOW  28  27  93 NE20      29.76R WCI  15
TWO HARBORS    LGT SNOW  27  21  80 N6        29.73R WCI  20
G MARAIS ARPRT FLURRIES  10   3  72 N13       29.74S WCI  -5
$$
MNZ029>031-032-039>041-046>048-054>057-064-190200-
   West Central Minnesota

CITY           SKY/WX    TMP DP  RH WIND       PRES   REMARKS
FERGUS FALLS   FAIR      18  12  79 N12G17    29.82R WCI   5
WHEATON        PTCLDY    18  12  79 NW21G28   29.84R WCI   1
MORRIS         CLOUDY    23  14  68 N18       29.76R WCI   9
ALEXANDRIA     CLOUDY    20  15  81 N17G24    29.74R WCI   5
ELBOW LAKE     CLOUDY    20  14  76 N13G24    29.78R WCI   8
WADENA         CLOUDY    18  12  79 N13G23    29.78R WCI   4
GLENWOOD       FAIR      21  16  79 N18G24    29.73R WCI   6
APPLETON       CLOUDY    25  16  68 N23G29    29.75R WCI  10
BENSON         CLOUDY    25  16  68 NE17      29.75R WCI  11
MADISON        CLOUDY    27  18  69 N20G29    29.76R WCI  13
WILLMAR        FAIR      28  18  64 N16       29.71R WCI  17
$$
MNZ033>034-036-042>043-049>051-058-059-190200-
   Central Minnesota

CITY           SKY/WX    TMP DP  RH WIND       PRES   REMARKS
ST CLOUD       CLOUDY    29  19  66 N18G25    29.67R WCI  16
SAUK CENTRE    CLOUDY    22  16  78 N10G22    29.73R WCI  11
PAYNESVILLE    FAIR      27  19  72 N13G21    29.70R WCI  16
AITKIN         FLURRIES  19  16  86 N8        29.73R WCI   9
PINE RIVER     CLOUDY    18  12  79 N12G20    29.81R WCI   5
BRAINERD       CLOUDY    21  15  78 N10       29.75R WCI  10
STAPLES        CLOUDY    18  12  79 N14       29.76R WCI   4
LONG PRAIRIE   FAIR      21  16  79 NW16      29.73R WCI   7
LITTLE FALLS   FLURRIES  23  14  68 N7        29.74R WCI  15
LITCHFIELD     FAIR      30  21  69 N15G22    29.67R WCI  19
BUFFALO        FAIR      35  30  79 CALM      29.64R
MAPLE LAKE     FAIR      37  33  82 NW6       29.65R
HUTCHINSON     FAIR      34  31  89 CALM      29.64R
$$
MNZ037-044-045-052-053-190200-
   East Central Minnesota

CITY           SKY/WX    TMP DP  RH WIND       PRES   REMARKS
PRINCETON      MOCLDY    36  27  69 N12       29.67R
MORA           RAIN      25  19  80 N6        29.71R WCI  18
CAMBRIDGE      FAIR      32  21  64 N8        29.68R WCI  25
RUSH CITY      CLOUDY    27  22  79 N12       29.68R WCI  17
MOOSE LAKE     LGT SNOW  23  21  93 N6        29.71R WCI  16
HINCKLEY       LGT SNOW  25  23  93 N10       29.69R WCI  15
CLOQUET        LGT SNOW  21  19  93 N5        29.72R WCI  15
MCGREGOR       CLOUDY    21  19  93 N9        29.75R WCI  11
$$
MNZ071>073-080-081-089-090-097-098-190200-
   Southwest Minnesota

CITY           SKY/WX    TMP DP  RH WIND       PRES   REMARKS
MONTEVIDEO     CLOUDY    27  18  69 N20G25    29.72R WCI  13
GRANITE FALLS  CLOUDY    32  22  65 NW17      29.70R WCI  21
CANBY          PTCLDY    26  19  75 NW17G23   29.75R WCI  13
MARSHALL       PTCLDY    28  19  69 N22       29.70R WCI  14
REDWOOD FALLS  CLOUDY    34  23  64 NW14      29.66R WCI  25
OLIVIA         CLOUDY    32  23  69 N12       29.67R WCI  23
PIPESTONE      PTCLDY    28  21  74 NE16G24   29.64R WCI  17
WINDOM         CLOUDY    36  19  51 NW9       29.64R
WORTHINGTON    CLOUDY    32  30  92 CALM      29.63R
JACKSON        CLEAR     36  30  80 CALM      29.63R
TRACY          CLOUDY    32  24  73 NW15G21   29.67R WCI  22
SLAYTON        PTCLDY    32  25  77 N18       29.66R WCI  20
$$
MNZ065>067-074>077-082>085-091>093-190200-
   South Central Minnesota

CITY           SKY/WX    TMP DP  RH WIND       PRES   REMARKS
MANKATO        FAIR      37  30  75 S6        29.64R
NEW ULM        CLOUDY    36  28  75 SW6       29.63R
ST JAMES       CLOUDY    36  30  80 SW5       29.64R
FAIRMONT       MOCLDY    38  31  76 S7        29.64R
GLENCOE        FAIR      37  32  82 S5        29.62R
FARIBAULT      FAIR      37  30  75 S10       29.65R
OWATONNA       FAIR      37  30  75 SE17      29.64R
WASECA         FAIR      37  32  81 S12G17    29.65R
ALBERT LEA     FAIR      37  28  70 S10       29.65R
$$
MNZ078>079-086>088-094>096-190200-
   Southeast Minnesota

CITY           SKY/WX    TMP DP  RH WIND       PRES   REMARKS
ROCHESTER      FAIR      36  29  75 S20       29.67S
RED WING       MOCLDY    39  27  60 S12G22    29.67R
STANTON        FAIR      38  30  72 S8        29.64R
DODGE CENTER   FAIR      36  28  75 S17       29.66R
WINONA         FAIR      37  28  70 S9        29.71S
AUSTIN         FAIR      36  28  75 S9        29.67S
PRESTON        FAIR      34  28  80 S14       29.72R WCI  25
$$
ABBREVIATIONS USED IN REMARKS
   TC - TEMPERATURES IN CELSIUS
  WCI - WIND CHILL INDEX
   HX - HEAT INDEX
  VSB - VISIBILITY
$$




USA.gov is the U.S. government's official web portal to all federal, state and local government web resources and services.